Simultaneous Nadir Overpasses (SNOs) Predictions

Prediction of SNOs between AQUA and GOES-15 Satellite Orbit:

Table of predicted SNOs for the next 14.0 days since TLE Epoch: 1/24/2025
Index Date Time (AQUA) AQUA Lat,Lon GOES-15 Lat,Lon Distance(km) Time Diff (sec)
1 01/25/2025 22:05:16 -0.93, 65.77 0.01, 61.51 485.29 80
2 01/26/2025 10:24:51 -0.11, 61.04 -0.01, 61.64 67.55 80
3 01/28/2025 10:05:37 0.86, 65.75 -0.01, 61.67 463.67 80
4 01/28/2025 22:25:03 0.13, 61.05 0.01, 61.56 58.47 80
5 01/30/2025 22:05:48 -0.88, 65.76 0.00, 61.60 472.87 80
6 01/31/2025 10:25:21 -0.17, 61.04 -0.00, 61.74 80.11 80
7 02/02/2025 10:06:06 0.87, 65.75 -0.00, 61.78 451.92 80
8 02/02/2025 22:25:30 0.14, 61.05 0.00, 61.66 69.75 80
9 02/04/2025 22:06:12 -0.87, 65.78 -0.00, 61.71 462.09 80
10 02/05/2025 10:25:45 -0.19, 61.06 0.00, 61.85 91.10 80
11 02/07/2025 10:06:26 0.86, 65.78 0.01, 61.91 440.58 80
